FENGYUN 1C DEB, 31891

Orbit data source: Space-Track

FENGYUN 1C DEB, 31891 is space debris in SSO originally from a launch on Mon, 10 May 1999 UTC launched from the Taiyaun Space Center, China (TSC). Fengyun 1C debris stems from the Chinese weather satellite Fengyun-1C, which was intentionally destroyed by a Chinese anti-satellite missile in 2007. This event dramatically increased the amount of space debris, with thousands of trackable fragments posing hazards to satellites and human spaceflight. The Fengyun 1C debris cloud has become a focal point in discussions about space sustainability and the need for international regulations to prevent the creation of new debris.

Loading next visibility...
Identifier
31891, 1999-025CKS
Orbit
SSO
Country
Flag of CNCN / PRC
Related business
Manufacturer
Unknown
Mission
Spacecraft
Bus & Motor
Unknown
Mass
Unknown
Launch date (UTC)
1999-05-10 (27 years ago)
Launch vehicle
Unknown
Launch site
Taiyaun Space Center, China (TSC)
Object type
Payload
Rocket body
Debris
Shape & HBR
Unknown shape, 0.1 m
Radar Cross Section
Small (<0.1 m²)

Expand to show TLE details & history
Last TLE update: 13 hours ago

TLE from 13 hours ago
0 FENGYUN 1C DEB
1 31891U 99025CKS 26150.98487441  .00000531  00000-0  58023-3 0  9996
2 31891  99.3918 166.2002 0225989 106.6022 256.0068 13.66381368947217
Epoch: 2026-05-30T23:38Z
TLE epoch observation values (Epoch: 2026-05-30T23:38:13.149Z)
Latitude
-0.00007°
Longitude
-76.84763°
Altitude
1,059.332 km
Speed
7.301 km/s
True Right ascension
11h 04m 48s
True Declination
0° 00' 00"
Sunlit
Object was in daylight at epoch
Visualization orbit readout
Latitude
Unknown
Longitude
Unknown
Altitude
Unknown
Speed
Unknown
Apparent Right ascension
Unknown
Apparent Declination
Unknown
Sunlit
N/A
Visualization observer readout
Local Sidereal Time
22:43:12
Azimuth
Unknown
Elevation
Unknown
Doppler factor
Unknown
Orbital elements
Apogee altitude
1,176.813 km
Perigee altitude
842.892 km
Semi-major axis
7,387.99 km
Eccentricity
0.0226
Inclination
99.3918°
RAAN
166.2002°
Arg. of periapsis
106.6022°
True anomaly
253.51185°
Mean anomaly
256.0068°
Eccentric anomaly
254.75753°
Mean motion
3.41786 °/min
Orbital period
105.33 mins
BSTAR
0.00058023
Loading maneuver chart data...
Computing Atmospheric mass density...
Loading historical data...
Loading historical data...
Loading historical data...
Loading historical data...
Loading historical data...
Loading historical data...
Loading historical data...

Documentation

Showing up to 5 results
|